This demonstration page uses our WeatherBlox Daily Observations layout. Learn more.

Left ArrowRight Arrow

39.12711, -84.51439

Hourly Observations for June 2, 2017

Temp ( °F °C ) Dew Point ( °F °C ) Humidity (%) Winds ( mph kmh ) Pressure ( in mb ) Visibility ( mi km ) Precip ( " mm )
12:53 am 00:53 Clear 56 13.3 52 11.1 87 87 Calm 30.05 1018 10 16 0.00 0.00
1:53 am 01:53 Clear 54 12.2 53 11.7 97 97 Calm 30.06 1018 10 16 0.00 0.00
2:53 am 02:53 Clear 53 11.7 53 11.7 100 100 VRB 3 6 30.07 1018 9 14 0.00 0.00
3:53 am 03:53 Clear 53 11.7 52 11.1 96 96 Calm 30.07 1018 10 16 0.00 0.00
4:53 am 04:53 Clear 52 11.1 51 10.6 97 97 Calm 30.09 1019 9 14 0.00 0.00
5:28 am 05:28 Clear with Mist and Fog 52 11.1 52 11.1 100 100 Calm 30.12 1020 2 3 0.00 0.00
5:36 am 05:36 Clear with Mist and Fog 51 10.6 51 10.6 100 100 Calm 30.12 1020 3 4 0.00 0.00
5:46 am 05:46 Clear with Mist and Fog 51 10.6 51 10.6 100 100 Calm 30.12 1020 2 2 0.00 0.00
5:50 am 05:50 Clear with Mist and Fog 50 10 50 10 100 100 Calm 30.12 1020 4 6 0.00 0.00
5:53 am 05:53 Clear with Mist and Fog 51 10.6 51 10.6 100 100 Calm 30.10 1019 5 8 0.00 0.00
6:20 am 06:20 Sunny with Mist and Fog 51 10.6 51 10.6 100 100 Calm 30.12 1020 2 3 0.00 0.00
6:29 am 06:29 Sunny with Mist and Fog 50 10 50 10 100 100 Calm 30.12 1020 4 6 0.00 0.00
6:53 am 06:53 Sunny 52 11.1 51 10.6 97 97 Calm 30.12 1020 10 16 0.00 0.00
7:53 am 07:53 Sunny 57 13.9 55 12.8 93 93 Calm 30.13 1020 10 16 0.00 0.00
8:53 am 08:53 Sunny 61 16.1 57 13.9 87 87 Calm 30.14 1021 10 16 0.00 0.00
9:53 am 09:53 Sunny 70 21.1 55 12.8 59 59 N 3 6 30.14 1021 10 16 0.00 0.00
10:53 am 10:53 Sunny 72 22.2 55 12.8 55 55 Calm 30.12 1020 10 16 0.00 0.00
11:53 am 11:53 Sunny 77 25 48 8.9 36 36 Calm 30.11 1020 10 16 0.00 0.00
12:53 pm 12:53 Sunny 79 26.1 54 12.2 42 42 SW 3 6 30.11 1020 10 16 0.00 0.00
1:53 pm 13:53 Sunny 81 27.2 51 10.6 35 35 VRB 6 9 30.09 1019 10 16 0.00 0.00
2:53 pm 14:53 Sunny 81 27.2 52 11.1 37 37 W 7 11 30.08 1019 10 16 0.00 0.00
3:53 pm 15:53 Sunny 82 27.8 49 9.4 32 32 VRB 6 9 30.06 1018 10 16 0.00 0.00
4:53 pm 16:53 Sunny 84 28.9 50 10 31 31 WNW 5 7 30.05 1018 10 16 0.00 0.00
5:53 pm 17:53 Sunny 82 27.8 50 10 33 33 SW 5 7 30.04 1017 10 16 0.00 0.00
6:53 pm 18:53 Sunny 80 26.7 51 10.6 37 37 W 6 9 30.03 1017 10 16 0.00 0.00
8:53 pm 20:53 Sunny 70 21.1 58 14.4 66 66 Calm 30.04 1017 10 16 0.00 0.00
9:53 pm 21:53 Clear 65 18.3 56 13.3 73 73 Calm 30.05 1018 10 16 0.00 0.00
10:53 pm 22:53 Clear 62 16.7 55 12.8 78 78 Calm 30.06 1018 10 16 0.00 0.00
11:53 pm 23:53 Clear 59 15 55 12.8 87 87 Calm 30.06 1018 10 16 0.00 0.00

Powered by AerisWeather